Location: Izdebno
(52.6670°N, 16.2170°E)
Time: 12:01:18
(UTC+02:00)

Vanguard 2 - Pass Details

Date: 06 February 2023
Orbit: 553 x 2927 km, 32.9° (Epoch: 26 March)

Event Time Altitude Azimuth Distance (km) Brightness Sun altitude
Rises 18:33:53 0° 176° (S) 4,809 11.6 -16.0°
Reaches altitude 10° 18:41:35 10° 140° (SE) 4,547 11.1 -17.2°
Maximum altitude 18:43:26 10° 132° (SE) 4,664 11.1 -17.5°
Enters shadow 18:45:12 10° 124° (SE) 4,832 11.1 -17.7°
Drops below altitude 10° 18:45:23 10° 123° (ESE) 4,851 - -17.7°
Sets 18:55:39 0° 92° (E) 6,485 - -19.3°
